Regional Weather Roundup
Issued by NWS

Home | Current Version | Previous Version | Graphics & Text | Print | Product List | Glossary On
Versions: 1 2 3 4 5 6 7 8 9 10 11 12 13 14 15 16 17 18 19 20 21 22 23 24 25 26 27 28 29 30 31 32 33 34 35 36 37 38 39 40 41 42 43 44 45 46 47 48 49 50
000
ASUS45 KCYS 021310
RWRWY

WYOMING REGIONAL WEATHER ROUNDUP
NATIONAL WEATHER SERVICE CHEYENNE WY
700 AM MDT SUN AUG 02 2015

NOTE:  "FAIR" INDICATES FEW OR NO CLOUDS BELOW 12,000 FEET
WITH NO SIGNIFICANT WEATHER AND/OR OBSTRUCTIONS TO VISIBILITY.

WYZ001-021400-
YELLOWSTONE NATIONAL PARK

CITY           SKY/WX    TMP DP  RH WIND       PRES   REMARKS
LK YELLOWSTONE   N/A     41  35  79 CALM      30.35R
W YELLOWSTONE  NOT AVBL

$$
WYZ002>013-054>058-071-098>099-021400-
NORTHERN WYOMING

CITY           SKY/WX    TMP DP  RH WIND       PRES   REMARKS
JACKSON        CLEAR     45  37  76 CALM      30.25R
CODY           FAIR      64  34  32 SW5       30.09R
GREYBULL       FAIR      60  33  36 CALM      30.01R
WORLAND        FAIR      52  35  52 CALM      30.02R
SHERIDAN       FAIR      58  44  60 NW3       29.99R
BUFFALO        FAIR      69  33  26 W5        30.07R
GILLETTE       FAIR      70  33  25 W10       30.01R
HULETT         FAIR      63  55  77 SE3       30.03R
NEWCASTLE      FAIR      63  52  67 CALM      30.02R

$$
WYZ014>020-022>026-101>103-021400-
CENTRAL WYOMING

CITY           SKY/WX    TMP DP  RH WIND       PRES   REMARKS
BIG PINEY      FAIR      46  31  55 CALM      30.26R
PINEDALE       FAIR      45  34  65 W6        30.27R
DUBOIS         FAIR      50  28  43 NW14      30.28R
LANDER         FAIR      60  31  33 CALM      30.12R
RIVERTON       FAIR      60  33  36 W7        30.13R
CASPER         FAIR      56  30  37 W5        30.11R
DOUGLAS        FAIR      60  46  59 NW6       30.09R

$$
WYZ021-027>030-104>119-021400-
SOUTHERN WYOMING

CITY           SKY/WX    TMP DP  RH WIND       PRES   REMARKS
EVANSTON       FAIR      56  29  35 S5        30.24R
KEMMERER       FAIR      50  32  50 N7        30.26R
FORT BRIDGER   SUNNY     61  28  29 W6        30.25S
ROCK SPRINGS   FAIR      55  29  36 N3        30.22R
DIXON          FAIR      54  38  55 CALM      30.24S
RAWLINS        FAIR      54  37  52 E3        30.22R
SARATOGA       FAIR      54  37  54 NE3       30.25R
LARAMIE        FAIR      54  42  64 S9        30.24R
CHEYENNE       FAIR      61  49  64 W8        30.14R
TORRINGTON     FAIR      58  54  86 CALM      30.02R
PINE BLUFFS    FAIR      54  52  94 CALM      30.10R

$$


USA.gov is the U.S. government's official web portal to all federal, state and local government web resources and services.